Back to catalog

CZ-3B R/B

AliveHEO
NORAD 41022·ROCKET BODY·🇨🇳 China

Launched Nov 3, 2015 from Xichang Satellite Launch Center

Loading…

Next Passes (next 24 hours)

TLE

FreshSource: Space-Track

Epoch: Sep 13, 2026, 20:08 UTC

1 41022U 15063B   26256.83931576  .00017863  00000-0  12300-2 0  9990
2 41022  26.8280 127.6942 6105466 201.9231 113.2345  3.93126984112372

Track CZ-3B R/B in real time with AllMySat

Download on the App Store